Location: Sungai Bunut
(2.6333°N, 113.7333°E)
Time: 14:17:27
(UTC+00:00)

Altair - Pass Details

Date: 07 December 2023
Orbit: 1501 x 1682 km, 47.2° (Epoch: 24 February)

Event Time Altitude Azimuth Distance (km) Brightness Sun altitude
Rises 21:41:49 0° 232° (SW) 4,931 9.9 -9.0°
Reaches altitude 10° 21:45:07 10° 237° (WSW) 3,936 9.3 -8.3°
Maximum altitude 21:54:50 52° 310° (NW) 1,983 7.8 -6.0°
Drops below altitude 10° 22:04:18 10° 24° (NNE) 3,829 9.6 -3.9°
Sets 22:07:30 0° 30° (NNE) 4,789 10.2 -3.1°
